Date String (YYYY-MM-DD hh:mm:ss) UTC,Instrument flags,absolute air pressure of the measurement (hPa),sample flow rate (lpm),inlet stack bypass flow (lpm),air temperature of the measurement (°C),ambient temperature measured by the external sensor (°C),aerosol sample conditioner tube jacket temperature (°C),OPC LED temperature (°C),internal box temperature (°C),relative humidity of the measurement (%),span deviation,mass concentration of particles derived from Lorenz-Mie calculation of OPC scattering (μg/m³),mass concentration of particles derived from Lorenz-Mie calculation of OPC scattering (μg/m³),mass concentration of particles derived from Lorenz-Mie calculation of OPC scattering (μg/m³)
DateTimeUTC,F1_M11,P_M11,Q1_M11,Q2_M11,T1_M11,T2_M11,T3_M11,T4_M11,T5_M11,U1_M11,ZSPAN_M11,X0_M11,X2_M11,X1_M11
2024-05-22 19:00:00,SystemResetWarning,0824.7,5.00,000.00,026.6,025.9,000.0,034.7,028.3,008.6,0000.0,0007.29,0002.16,0001.46
2024-05-22 19:01:00,SystemResetWarning,0824.7,4.99,000.00,026.6,025.9,000.0,034.7,028.3,008.5,0000.0,0008.20,0002.23,0001.46
2024-05-22 19:02:00,SystemResetWarning,0824.7,4.99,000.00,026.6,025.9,000.0,034.7,028.3,008.5,0000.0,0009.16,0002.21,0001.48
2024-05-22 19:03:00,SystemResetWarning,0824.7,5.01,000.00,026.6,025.9,000.0,034.7,028.3,008.2,0000.0,0009.23,0002.22,0001.46
2024-05-22 19:04:00,SystemResetWarning,0824.6,5.01,000.00,026.6,025.9,000.0,034.7,028.4,008.3,0000.0,0009.04,0002.22,0001.44
2024-05-22 19:05:00,SystemResetWarning,0824.6,5.01,000.00,026.6,025.9,000.0,034.8,028.4,008.3,0000.0,0008.25,0002.20,0001.44
2024-05-22 19:06:00,SystemResetWarning,0824.5,5.00,000.00,026.6,026.0,000.0,034.8,028.4,009.6,0000.0,0008.60,0002.19,0001.44
2024-05-22 19:07:00,SystemResetWarning,0824.5,5.00,000.00,026.7,026.0,000.0,034.8,028.4,009.6,0000.0,0008.58,0002.15,0001.44
2024-05-22 19:08:00,SystemResetWarning,0824.5,4.99,000.00,026.7,026.0,000.0,034.8,028.4,008.9,0000.0,0009.44,0002.16,0001.43
2024-05-22 19:09:00,SystemResetWarning,0824.5,5.00,000.00,026.7,026.0,000.0,034.8,028.5,008.9,0000.0,0009.57,0002.15,0001.42
2024-05-22 19:10:00,SystemResetWarning,0824.6,5.00,000.00,026.7,026.0,000.0,034.8,028.5,009.4,0000.0,0009.50,0002.09,0001.41
2024-05-22 19:11:00,SystemResetWarning,0824.6,5.00,000.00,026.7,026.1,000.0,034.9,028.5,009.2,0000.0,0008.99,0002.07,0001.42
2024-05-22 19:12:00,SystemResetWarning,0824.5,5.01,000.00,026.7,026.1,000.0,034.9,028.5,008.7,0000.0,0008.24,0001.99,0001.41
2024-05-22 19:13:00,SystemResetWarning,0824.5,5.01,000.00,026.7,026.1,000.0,034.9,028.5,008.7,0000.0,0007.64,0002.01,0001.41
2024-05-22 19:14:00,SystemResetWarning,0824.4,5.00,000.00,026.7,026.1,000.0,034.9,028.5,009.3,0000.0,0007.12,0002.00,0001.41
2024-05-22 19:15:00,SystemResetWarning,0824.4,4.99,000.00,026.8,026.1,000.0,034.9,028.5,009.8,0000.0,0007.14,0002.02,0001.43
2024-05-22 19:16:00,SystemResetWarning,0824.3,4.99,000.00,026.8,026.1,000.0,034.9,028.5,009.6,0000.0,0007.19,0002.04,0001.44
2024-05-22 19:17:00,SystemResetWarning,0824.4,5.00,000.00,026.8,026.1,000.0,034.9,028.6,009.0,0000.0,0006.59,0002.01,0001.43
2024-05-22 19:18:00,SystemResetWarning,0824.4,5.00,000.00,026.8,026.1,000.0,034.9,028.6,010.1,0000.0,0006.50,0002.00,0001.44
2024-05-22 19:19:00,SystemResetWarning,0824.3,5.01,000.00,026.8,026.1,000.0,035.0,028.6,008.7,0000.0,0006.46,0002.00,0001.45
2024-05-22 19:20:00,SystemResetWarning,0824.3,5.01,000.00,026.8,026.2,000.0,035.0,028.6,009.0,0000.0,0005.16,0001.95,0001.46
2024-05-22 19:21:00,SystemResetWarning,0824.3,4.98,000.00,026.8,026.2,000.0,035.0,028.6,009.0,0000.0,0005.02,0001.95,0001.47
2024-05-22 19:22:00,SystemResetWarning,0824.3,4.99,000.00,026.8,026.2,000.0,035.0,028.6,008.5,0000.0,0004.93,0002.02,0001.48
2024-05-22 19:23:00,SystemResetWarning,0824.3,5.01,000.00,026.9,026.2,000.0,035.0,028.6,009.0,0000.0,0004.88,0002.03,0001.47
2024-05-22 19:24:00,SystemResetWarning,0824.4,5.00,000.00,026.9,026.2,000.0,035.0,028.6,009.0,0000.0,0004.81,0002.02,0001.48
2024-05-22 19:25:00,SystemResetWarning,0824.4,5.00,000.00,026.9,026.2,000.0,035.0,028.6,008.5,0000.0,0004.74,0002.00,0001.49
2024-05-22 19:26:00,SystemResetWarning,0824.4,5.00,000.00,026.9,026.2,000.0,035.0,028.6,008.6,0000.0,0004.81,0002.00,0001.49
2024-05-22 19:27:00,SystemResetWarning,0824.4,5.01,000.00,026.9,026.2,000.0,035.0,028.6,009.8,0000.0,0005.75,0002.00,0001.49
2024-05-22 19:28:00,SystemResetWarning,0824.4,5.00,000.00,026.9,026.2,000.0,035.0,028.7,010.8,0000.0,0005.87,0002.05,0001.51
2024-05-22 19:29:00,SystemResetWarning,0824.3,5.00,000.00,026.9,026.3,000.0,035.1,028.7,009.6,0000.0,0007.10,0002.12,0001.51
2024-05-22 19:30:00,SystemResetWarning,0824.3,4.99,000.00,026.9,026.3,000.0,035.1,028.7,009.1,0000.0,0006.33,0002.23,0001.53
2024-05-22 19:31:00,SystemResetWarning,0824.3,5.00,000.00,027.0,026.3,000.0,035.1,028.7,009.2,0000.0,0006.50,0002.29,0001.54
2024-05-22 19:32:00,SystemResetWarning,0824.2,5.00,000.00,027.0,026.3,000.0,035.1,028.7,009.4,0000.0,0006.85,0002.32,0001.53
2024-05-22 19:33:00,SystemResetWarning,0824.1,5.01,000.00,027.0,026.3,000.0,035.1,028.8,009.5,0000.0,0007.00,0002.27,0001.54
2024-05-22 19:34:00,SystemResetWarning,0824.2,5.00,000.00,027.0,026.3,000.0,035.1,028.8,009.4,0000.0,0006.95,0002.26,0001.56
2024-05-22 19:35:00,SystemResetWarning,0824.2,4.99,000.00,027.0,026.4,000.0,035.1,028.8,009.6,0000.0,0007.37,0002.30,0001.56
2024-05-22 19:36:00,SystemResetWarning,0824.1,4.99,000.00,027.0,026.4,000.0,035.1,028.8,009.7,0000.0,0008.67,0002.40,0001.57
2024-05-22 19:37:00,SystemResetWarning,0824.1,5.01,000.00,027.0,026.4,000.0,035.2,028.8,009.4,0000.0,0008.91,0002.46,0001.59
2024-05-22 19:38:00,SystemResetWarning,0824.1,5.01,000.00,027.1,026.4,000.0,035.2,028.8,008.2,0000.0,0008.52,0002.48,0001.59
2024-05-22 19:39:00,SystemResetWarning,0824.0,5.00,000.00,027.1,026.4,000.0,035.2,028.8,008.2,0000.0,0008.57,0002.43,0001.59
2024-05-22 19:40:00,SystemResetWarning,0824.0,5.00,000.00,027.1,026.4,000.0,035.2,028.9,008.4,0000.0,0007.71,0002.39,0001.59
2024-05-22 19:41:00,SystemResetWarning,0824.0,4.99,000.00,027.1,026.4,000.0,035.2,028.9,009.5,0000.0,0007.64,0002.33,0001.57
2024-05-22 19:42:00,SystemResetWarning,0824.0,5.00,000.00,027.1,026.5,000.0,035.2,028.9,009.3,0000.0,0007.57,0002.27,0001.57
2024-05-22 19:43:00,SystemResetWarning,0824.0,4.99,000.00,027.1,026.5,000.0,035.2,028.9,009.2,0000.0,0007.76,0002.25,0001.58
2024-05-22 19:44:00,SystemResetWarning,0824.0,5.00,000.00,027.2,026.5,000.0,035.3,028.9,009.2,0000.0,0007.62,0002.25,0001.59
2024-05-22 19:45:00,SystemResetWarning,0824.0,5.00,000.00,027.2,026.5,000.0,035.3,028.9,009.0,0000.0,0007.67,0002.27,0001.58
2024-05-22 19:46:00,SystemResetWarning,0824.0,5.00,000.00,027.2,026.5,000.0,035.3,028.9,009.1,0000.0,0007.10,0002.23,0001.56
2024-05-22 19:47:00,SystemResetWarning,0824.0,5.01,000.00,027.2,026.5,000.0,035.3,028.9,010.0,0000.0,0005.25,0002.15,0001.55
2024-05-22 19:48:00,SystemResetWarning,0823.9,5.00,000.00,027.2,026.6,000.0,035.3,029.0,009.5,0000.0,0005.23,0002.12,0001.54
2024-05-22 19:49:00,SystemResetWarning,0823.9,5.01,000.00,027.2,026.6,000.0,035.3,029.0,009.1,0000.0,0005.14,0002.10,0001.54
2024-05-22 19:50:00,SystemResetWarning,0823.9,5.01,000.00,027.2,026.6,000.0,035.4,029.0,008.8,0000.0,0004.96,0002.11,0001.53
2024-05-22 19:51:00,SystemResetWarning,0823.9,5.00,000.00,027.2,026.6,000.0,035.4,029.0,009.7,0000.0,0004.86,0002.10,0001.53
2024-05-22 19:52:00,SystemResetWarning,0823.8,5.00,000.00,027.3,026.6,000.0,035.4,029.0,009.4,0000.0,0005.80,0002.08,0001.54
2024-05-22 19:53:00,SystemResetWarning,0823.8,4.98,000.00,027.3,026.6,000.0,035.4,029.0,009.5,0000.0,0007.80,0002.08,0001.53
2024-05-22 19:54:00,SystemResetWarning,0823.9,5.00,000.00,027.3,026.6,000.0,035.4,029.0,009.9,0000.0,0007.63,0002.09,0001.51
2024-05-22 19:55:00,SystemResetWarning,0823.8,5.01,000.00,027.3,026.6,000.0,035.4,029.0,008.9,0000.0,0007.62,0002.07,0001.50
2024-05-22 19:56:00,SystemResetWarning,0823.8,5.00,000.00,027.3,026.7,000.0,035.4,029.1,008.8,0000.0,0007.53,0002.00,0001.48
2024-05-22 19:57:00,SystemResetWarning,0823.8,5.00,000.00,027.3,026.7,000.0,035.5,029.1,008.2,0000.0,0007.54,0002.01,0001.49
2024-05-22 19:58:00,SystemResetWarning,0823.9,5.00,000.00,027.3,026.7,000.0,035.5,029.1,008.5,0000.0,0007.40,0001.98,0001.49
2024-05-22 19:59:00,SystemResetWarning,0823.8,5.00,000.00,027.4,026.7,000.0,035.5,029.1,008.7,0000.0,0007.11,0001.94,0001.48
